BEIDOU 9

Last updated on Jan. 19, 2020, 4:37 a.m. UTC

1 37763U 11038A   20018.34509081 -.00000021  00000-0  10000-3 0  9998
2 37763  54.4275 186.8091 0066267 224.0931 286.1630  1.00281845 31162
UTC
Height (km)
Latitude
Longitude
Inclination
Orbital Period
UTC large
Height (km)
Speed (km/s)
/
Latitude / Longitude
Inclination (degrees)
Orbital Period (minutes)
Azimuth
Elevation
Range (km)
Doppler Factor
iOS Compass Heading
iOS Angle

Next 30 passes for location: Hong Kong

Rise time Rise Azimuth (degrees) Set time Set Azimuth (degrees) Duration Max altitude (degrees)

No matching passes for this satellites